Location: Brachstadt
(48.6975°N, 10.6755°E)
Time: 08:53:30
(UTC+00:00)

ATLAS 3B R/B - Pass Details

Date: 18 September 2020
Orbit: 1016 x 1179 km, 63.8° (Epoch: 04 October)

Event Time Altitude Azimuth Distance (km) Brightness Sun altitude
Rises 19:31:06 0° 316° (NW) 3,807 6.9 -21.1°
Reaches altitude 10° 19:33:53 10° 324° (NW) 2,871 5.9 -21.5°
Maximum altitude 19:40:16 42° 34° (NE) 1,505 3.4 -22.4°
Enters shadow 19:42:49 31° 78° (ENE) 1,807 3.5 -22.7°
